Casper, WY

4:56 AM MDT on May 30, 2015 (GMT -0600)
CY Ave | | Change Station
CLOSE
Current Station
Personal Weather Station
Location: Casper, WY
Elevation: 5227 ft
Nearby Weather Stations

Elev 5227 ft 42.83 °N, 106.35 °W | Updated 11 minutes ago

Clear
Clear
42.4 °F
Feels Like 42 °F
N
0.0
Wind Variable Wind from WNW
Gusts 0.0 mph

Today
High -- | Low -- °F
--% Chance of Precip.
Yesterday
High -- | Low -- °F
Precip. -- in
5:30 AM 8:35 PM
Waxing Gibbous, 89% visible
Pressure 30.24 in
Visibility 5.0 miles
Clouds Few 200 ft
Windchill 42 °F
Dew Point 34 °F
Humidity 72%
Rainfall 0.00 in
Snow Depth Not available.
UV 0 out of 12
Pollen 1.00 out of 12
Air Quality Not available.
Flu Activity Sporadic
SPECI KCPR 301032Z AUTO 00000KT 5SM BR FEW002 02/02 A3024

More Conditions Fewer Conditions

Pressure 30.24 in
Visibility 5.0 miles
Clouds Few 200 ft
Windchill 42 °F
Dew Point 34 °F
Humidity 72%
Rainfall 0.00 in
Snow Depth Not available.
UV 0 out of 12
Pollen 1.00 out of 12
Air Quality Not available.
Flu Activity Sporadic
SPECI KCPR 301032Z AUTO 00000KT 5SM BR FEW002 02/02 A3024

More Conditions Fewer Conditions

10-Day Weather Forecast

Almanac

Astronomy

May. 30, 2015 Rise Set
Actual Time
Civil Twilight
Nautical Twilight
Astronomical Twilight
Moon
Length of Visible Light
Length of Day
Tomorrow will be .
, % of the Moon is Illuminated

Today's Extremes

State Highs State Lows

Community

WunderPhotos

Upload Photos

1,825,478 photos uploaded!

WunderBlogs® & News

Nearby

Air Quality

  Air Quality AQ Index Pollutant
Not available.

Snow Depth

Station Depth Elevation

Earthquake Activity

City Distance Mag. Time & Date
Minimum magnitude displayed is 2.5.

Coastal Water Temperatures

Place Temperature

Stations

Nearby Weather Stations

Station Location Temp. Windchill Dew Point Humidity Wind Precip. Elev Updated Type